Regional Weather Roundup
Issued by NWS

Home | Current Version | Previous Version | Graphics & Text | Print | Product List | Glossary On
Versions: 1 2 3 4 5 6 7 8 9 10 11 12 13 14 15 16 17 18 19 20 21 22 23 24 25 26 27 28 29 30 31 32 33 34 35 36 37 38 39 40 41 42 43 44 45 46 47 48 49 50
000
ASUS43 KIND 091259
RWRIN

WEATHER ROUNDUP FOR INDIANA
NATIONAL WEATHER SERVICE INDIANAPOLIS IN
800 AM EST FRI DEC 09 2016

NOTE: "FAIR" INDICATES FEW OR NO CLOUDS BELOW 12,000 FEET WITH NO
SIGNIFICANT WEATHER AND/OR OBSTRUCTIONS TO VISIBILITY.

* - STATION DOES NOT REPORT WEATHER SUCH AS PRECIPITATION OR FOG.

+ - STATION NOT QUALITY CONTROLLED BY THE NATIONAL WEATHER SERVICE.
    USE DATA WITH CAUTION...ESPECIALLY DEWPOINT AND RELATIVE
    HUMIDITY OBSERVATIONS.

INZ001>003-010>013-019-020-091400-
NORTHWEST INDIANA

CITY           SKY/WX    TMP DP  RH WIND       PRES   REMARKS
GARY /AIRPORT/ CLOUDY    25  19  80 W10       30.50R WCI  15
KNOX *+        CLOUDY    23   3  42 W15       30.47R WCI  10
LA PORTE +     FLURRIES  23  18  83 W10       30.45R WCI  12
MONTICELLO +   FLURRIES  22  15  75 W8G16     30.50R WCI  12
RENSSELAER +   FLURRIES  23  21  93 W9        30.50R WCI  13

$$

LMZ046-743>745-091400-
SOUTHERN LAKE MICHIGAN

STATION/POSITION TIME  TEMP    WIND        PRES    WAVE
                       AIR SEA DIR/SP/G            HT
                 (UTC) (F)     (DEG/KT/KT) (MB)    (FT)

$$

INZ004-005-014>016-021>024-091400-
NORTH CENTRAL INDIANA

CITY           SKY/WX    TMP DP  RH WIND       PRES   REMARKS
ELKHART        MOCLDY    21  19  93 W8        30.41R WCI  12
GOSHEN         CLOUDY    22  16  78 W12       30.42R WCI  10
PERU/GRISSOM   CLOUDY    21  18  86 W14       30.46R WCI   8
SOUTH BEND     FLURRIES  22  20  92 W13       30.42R WCI  10
WARSAW +       CLOUDY    21  16  79 W8        30.44R WCI  12

$$

INZ006>009-017-018-025>027-091400-
NORTHEAST INDIANA

CITY           SKY/WX    TMP DP  RH WIND       PRES   REMARKS
ANGOLA *+      CLOUDY    21  19  93 W10       30.37R WCI  10
FORT WAYNE     PTCLDY    21  15  78 W15G24    30.43R WCI   8
KENDALLVILLE + LGT SNOW  22  19  88 W14G20    30.40R WCI  10

$$

INZ028-029-035-036-043>045-051>053-091400-
WEST CENTRAL INDIANA

CITY           SKY/WX    TMP DP  RH WIND       PRES   REMARKS
CRAWFORDSVL +  FLURRIES  19  17  93 W8        30.52R WCI   9
GREENCASTLE +  FLURRIES  21  19  93 W5        30.53S WCI  15
LAFAYETTE      FLURRIES  22  17  81 W10       30.52R WCI  11
TERRE HAUTE    CLOUDY    22  14  71 NW6       30.57R WCI  14

$$

INZ030>032-037>040-046>048-054>057-064-065-091400-
CENTRAL INDIANA

CITY           SKY/WX    TMP DP  RH WIND       PRES   REMARKS
COLUMBUS       FLURRIES  21  18  86 W12       30.55R WCI   9
FRANKFORT +    FLURRIES  23  19  84 W10       30.51R WCI  12
GREENWOOD *+   CLOUDY    21  17  85 W6        30.52R WCI  14
INDIANAPOLIS   FLURRIES  20  15  81 W13       30.51S WCI   7
-EAGLE CREEK   CLOUDY    21  15  78 W6        30.51R WCI  13
KOKOMO +       CLOUDY    21  17  84 W14       30.48R WCI   8
SHELBYVILLE    CLOUDY    22  15  75 W9        30.51R WCI  12
ZIONSVILLE +   FLURRIES  19  16  86 W9        30.50R WCI   8

$$

INZ033-034-041-042-049-050-058-059-091400-
EAST CENTRAL INDIANA

CITY           SKY/WX    TMP DP  RH WIND       PRES   REMARKS
MUNCIE         CLEAR     18  13  80 W7        30.47R WCI   9

$$

INZ060-061-067>069-081>083-085>088-091400-
SOUTHWEST INDIANA

CITY           SKY/WX    TMP DP  RH WIND       PRES   REMARKS
EVANSVILLE     CLOUDY    23  13  65 NW5       30.62R WCI  17
HUNTINGBURG *+ FLURRIES  22  14  71 NW8       30.59R WCI  12

$$

INZ062-063-066-070>080-084-089>092-091400-
SOUTH CENTRAL AND SOUTHEAST INDIANA

CITY           SKY/WX    TMP DP  RH WIND       PRES   REMARKS
BLOOMINGTON    FLURRIES  20  12  71 W6        30.54R WCI  12
MADISON *+     CLOUDY    23  12  63 W6        30.56R WCI  16
SEYMOUR +      FLURRIES  23  14  68 W9        30.56R WCI  13

$$




USA.gov is the U.S. government's official web portal to all federal, state and local government web resources and services.